Location: Hilton Head Island
(32.2163°N, 80.7526°W)
Time: 21:06:43
(UTC-05:00)

Vanguard 3 - Visible Passes

Search period start: 06 February 2026 00:00
Search period end: 16 February 2026 00:00
Orbit: 507 x 3206 km, 33.3° (Epoch: 6 February)

Date Brightness Start Highest point End Pass type
(mag) Time Alt. Az. Time Alt. Az. Time Alt. Az.
6 Feb 10.5 04:20:34 13° SSW 04:20:34 13° SSW 04:23:18 10° S visible
6 Feb 8.2 20:18:00 10° WSW 20:20:11 27° WSW 20:20:11 27° WSW visible
7 Feb 7.5 18:56:10 10° SW 19:01:01 37° SSE 19:03:21 19° ESE visible
8 Feb 6.3 19:45:47 10° WSW 19:50:24 69° S 19:50:24 69° S visible
9 Feb 7.6 18:23:25 10° SW 18:29:14 42° SSE 18:33:11 10° E visible
9 Feb 8.7 20:35:43 10° W 20:37:27 22° W 20:37:27 22° W visible
10 Feb 6.6 19:13:17 10° WSW 19:18:46 74° SSE 19:20:34 32° E visible
11 Feb 6.9 20:03:28 10° W 20:07:35 60° WNW 20:07:35 60° WNW visible
12 Feb 6.9 18:40:31 10° WSW 18:46:59 78° SSE 18:50:41 13° E visible
12 Feb 9.2 20:53:32 10° W 20:54:36 16° W 20:54:36 16° W visible
13 Feb 6.6 19:30:57 10° W 19:36:33 79° N 19:37:41 47° ENE visible
14 Feb 7.7 20:21:14 10° W 20:24:41 41° WNW 20:24:41 41° WNW visible
15 Feb 6.9 18:58:08 10° W 19:04:44 80° N 19:07:46 20° E visible
15 Feb 9.6 21:11:16 10° W 21:11:41 12° W 21:11:41 12° W visible
